Wind_Speed
16 16 16 16 17 16 16 16 17 17 18 18 18 19 19 19 20 21 21 21 22 23 23 22 22 22 23 24 24 24 25 25 25 26 26 26 26 26
16 16 16 16 17 16 16 17 18 18 18 19 19 18 19 19 20 21 20 21 23 23 22 23 23 23 24 24 25 25 25 25 26 26 27 27 27 27
15 16 16 16 16 17 17 17 18 19 20 20 19 19 19 20 20 20 21 21 22 22 22 22 23 23 24 25 26 26 26 27 27 27 28 28 28 28
15 16 15 15 15 16 17 18 19 20 19 19 19 20 20 20 21 21 22 22 22 22 23 22 23 24 24 25 25 26 27 27 27 26 27 27 27 28
15 15 16 16 17 17 18 18 19 19 20 20 20 21 21 21 21 22 24 24 24 24 24 23 24 24 24 25 26 27 27 27 27 27 27 27 27 28
16 16 16 17 17 18 19 20 20 20 21 21 21 21 22 22 22 22 23 24 25 25 25 26 25 25 26 26 27 27 28 28 28 28 27 27 27 28
16 17 18 18 19 19 20 20 21 21 21 21 21 21 21 22 22 22 23 23 25 26 26 26 26 26 26 26 26 27 28 28 28 28 28 28 28 28
18 18 18 19 20 20 21 22 22 22 22 22 22 22 22 22 23 23 23 24 24 24 25 25 26 26 26 26 27 27 28 28 28 28 28 28 28 29
19 19 19 20 20 20 21 22 22 22 23 23 23 22 22 22 22 23 24 25 24 25 25 25 26 26 27 27 27 27 27 27 27 27 28 29 29 29
20 20 20 20 20 20 21 22 22 22 23 24 24 23 23 23 23 24 24 25 25 26 26 26 27 27 27 27 27 27 27 27 27 28 28 28 29 29
21 21 21 21 21 21 21 21 22 22 22 22 22 22 23 23 23 23 24 24 25 25 26 26 26 26 27 27 27 27 28 28 28 28 28 29 29 29
22 22 22 22 22 22 21 21 21 21 21 22 22 23 23 22 22 22 22 23 24 24 25 25 25 26 26 27 27 28 28 29 28 29 29 30 30 30
23 23 23 22 22 21 21 21 22 22 22 22 23 23 23 23 22 22 22 23 23 24 25 25 25 25 26 26 26 27 28 29 28 28 28 29 29 30
23 23 23 22 22 21 21 21 21 21 22 22 22 23 23 23 23 23 23 24 24 24 24 24 24 25 25 25 26 26 27 28 28 28 28 28 29 29
23 23 23 23 22 22 21 21 21 22 22 22 22 22 22 23 23 23 24 24 24 24 24 24 24 25 26 26 26 26 26 26 26 27 28 27 27 27
24 23 23 23 23 23 23 22 22 22 22 22 22 22 22 22 23 23 23 23 24 24 24 25 25 26 27 27 26 26 26 26 26 26 26 27 27 27
24 24 24 24 23 23 23 24 24 23 22 22 22 23 23 23 23 23 23 23 24 24 24 24 25 25 26 26 26 26 26 26 25 26 26 26 27 27
24 24 24 24 24 24 24 24 24 23 23 22 23 23 23 23 24 24 24 24 24 24 25 24 24 24 24 24 25 25 25 25 25 25 26 25 25 26
25 25 25 25 24 25 24 24 24 24 23 23 23 23 24 24 24 24 25 25 24 24 24 24 24 25 24 24 24 24 24 24 24 25 25 25 25 25
25 25 25 25 24 25 25 24 24 24 24 23 23 23 24 24 25 25 25 25 25 24 24 24 24 24 24 23 23 23 23 23 23 23 23 24 24 24
26 25 25 24 24 25 26 26 25 25 24 24 24 24 25 25 25 26 25 26 26 25 25 25 24 24 24 23 23 23 23 23 23 23 22 22 22 23
26 26 26 26 25 25 25 25 24 24 23 23 24 24 24 25 25 25 25 26 25 25 25 25 25 25 24 24 23 23 22 22 22 22 21 21 22 22
26 26 26 26 25 24 24 23 23 23 23 23 23 23 24 24 24 24 25 25 25 24 24 24 24 24 23 23 23 23 22 22 22 22 21 21 21 21
Wind_Direction
284 283 280 277 273 268 268 266 265 263 262 262 260 259 259 255 256 256 255 255 256 258 258 258 258 258 257 257 255 255 256 255 255 253 253 255 255 255
283 280 279 278 275 269 268 269 265 263 265 265 264 264 262 257 258 259 258 258 260 258 259 260 260 261 261 260 257 257 256 256 256 254 253 255 256 256
288 281 278 277 275 272 271 271 268 265 264 265 264 263 264 261 261 260 258 260 262 260 260 260 260 261 262 260 259 258 258 258 256 255 255 256 256 256
294 289 281 275 272 270 272 275 272 268 266 265 265 264 262 262 262 262 261 262 264 263 262 262 262 262 263 261 261 260 259 259 257 256 256 256 256 257
299 293 287 281 275 275 275 277 275 270 268 268 267 266 265 265 264 263 262 262 264 263 263 263 264 264 263 263 262 262 261 260 259 258 257 256 256 256
299 295 290 285 279 276 276 277 276 273 271 271 269 269 267 265 265 266 265 264 264 263 263 262 262 264 266 266 264 263 262 261 260 260 258 257 256 256
298 296 292 287 283 278 275 276 276 273 272 272 271 270 269 269 268 269 268 267 266 264 263 263 263 265 266 265 264 263 264 262 260 259 258 258 257 257
297 297 294 290 287 283 280 277 275 273 272 271 271 270 270 271 269 270 270 268 267 266 266 266 266 265 265 265 264 265 264 263 260 259 258 257 257 256
297 297 296 293 289 285 282 280 278 275 273 271 270 271 271 272 270 269 268 269 268 267 267 268 268 267 266 265 266 266 266 264 260 258 258 257 257 257
297 296 296 294 292 288 284 281 279 278 276 274 271 271 271 270 271 270 268 268 268 268 268 269 269 268 266 266 266 265 264 263 260 258 257 257 256 257
295 295 296 296 293 290 286 283 282 279 276 275 274 274 273 272 272 271 269 269 268 268 270 269 268 267 266 266 265 264 263 262 260 259 258 258 258 257
295 294 295 295 294 291 287 284 283 281 280 278 277 277 277 275 274 273 273 273 272 272 272 271 269 268 267 267 266 265 264 263 261 260 260 259 258 256
293 293 293 293 294 292 290 287 285 282 281 280 279 278 278 278 275 274 273 273 273 274 272 271 270 269 268 267 268 266 265 264 262 262 261 260 259 257
293 290 290 290 291 291 290 289 287 286 285 283 281 278 277 277 276 275 272 271 272 272 270 269 270 270 270 270 270 270 268 266 263 262 261 259 258 257
296 293 290 289 290 289 288 288 287 286 284 282 280 277 276 276 276 276 274 271 270 271 270 270 270 271 271 271 271 269 267 267 265 263 261 260 258 257
298 297 292 289 289 288 288 288 288 288 286 282 279 276 275 276 277 276 275 272 271 271 271 271 271 271 271 270 271 269 267 265 264 263 261 259 259 258
298 296 294 292 291 290 289 288 287 287 286 283 280 278 276 276 278 278 277 276 275 274 273 273 273 273 271 271 270 268 267 265 263 262 259 258 258 258
298 296 294 292 291 290 290 288 286 286 285 283 280 278 277 277 279 279 277 275 275 274 274 273 273 272 272 272 271 269 267 265 264 263 260 258 257 256
299 297 294 293 290 289 289 288 286 285 283 283 281 278 277 278 278 279 277 276 275 275 275 273 272 272 272 273 271 270 269 267 266 264 261 258 256 255
298 298 296 295 290 288 288 287 286 284 283 282 281 280 280 279 279 279 278 277 277 275 273 273 273 272 273 272 270 269 268 268 267 265 262 259 256 254
297 297 296 295 293 290 289 287 287 286 284 283 282 282 280 279 279 279 278 276 277 274 272 271 271 271 271 270 270 269 267 264 263 263 262 259 256 253
297 296 296 296 294 292 290 288 288 288 285 283 282 281 281 281 280 278 276 275 274 272 270 270 270 269 268 268 269 268 264 262 262 261 260 258 255 253
300 299 298 297 295 294 294 291 290 289 287 285 283 282 281 282 281 279 278 277 274 271 269 268 268 267 267 268 267 265 263 262 261 260 259 258 253 249
Height
5826 5825 5824 5823 5823 5823 5823 5823 5824 5824 5823 5823 5823 5823 5823 5824 5824 5823 5824 5823 5824 5825 5826 5826 5826 5826 5827 5827 5828 5829 5829 5829 5830 5831 5831 5832 5833 5833
5821 5820 5819 5818 5818 5818 5818 5818 5818 5818 5818 5817 5817 5818 5818 5818 5818 5817 5818 5818 5818 5819 5819 5820 5820 5820 5821 5821 5821 5822 5822 5823 5823 5824 5824 5825 5826 5826
5816 5815 5814 5814 5813 5813 5813 5812 5812 5812 5812 5811 5811 5812 5812 5812 5811 5811 5811 5812 5812 5812 5812 5813 5813 5813 5814 5814 5814 5815 5815 5815 5816 5816 5817 5818 5818 5819
5812 5811 5810 5809 5808 5808 5807 5807 5806 5806 5806 5806 5805 5805 5805 5805 5805 5805 5805 5805 5805 5805 5805 5806 5806 5807 5806 5806 5807 5807 5807 5808 5808 5809 5809 5810 5811 5811
5808 5806 5805 5804 5804 5803 5802 5801 5800 5800 5800 5800 5799 5799 5799 5799 5798 5798 5798 5798 5798 5798 5798 5799 5799 5799 5799 5800 5799 5799 5799 5800 5800 5801 5802 5802 5803 5803
5803 5802 5800 5799 5798 5797 5796 5796 5794 5794 5793 5793 5793 5792 5792 5792 5791 5791 5791 5791 5791 5791 5791 5792 5792 5792 5792 5792 5792 5791 5792 5792 5792 5793 5793 5794 5795 5795
5799 5797 5795 5793 5792 5791 5790 5789 5788 5787 5787 5786 5786 5786 5785 5785 5785 5784 5784 5784 5784 5784 5784 5784 5785 5785 5784 5784 5784 5783 5784 5784 5784 5785 5785 5786 5787 5787
5794 5791 5789 5787 5786 5785 5784 5783 5782 5781 5780 5779 5779 5778 5778 5778 5777 5777 5777 5777 5777 5777 5777 5776 5776 5777 5776 5776 5776 5775 5775 5775 5776 5776 5777 5777 5778 5779
5788 5786 5784 5781 5779 5778 5777 5776 5775 5774 5773 5773 5772 5771 5771 5770 5770 5769 5769 5769 5769 5769 5769 5769 5768 5768 5768 5768 5768 5767 5767 5767 5767 5768 5768 5769 5770 5770
5782 5780 5778 5775 5773 5771 5770 5769 5768 5767 5766 5765 5765 5764 5763 5763 5762 5762 5761 5761 5761 5760 5761 5761 5760 5760 5760 5759 5759 5759 5759 5759 5759 5759 5760 5760 5761 5761
5776 5774 5772 5769 5767 5765 5764 5762 5761 5760 5759 5758 5757 5756 5756 5755 5755 5754 5754 5753 5753 5753 5752 5752 5752 5751 5751 5751 5750 5750 5750 5750 5750 5750 5751 5751 5752 5752
5770 5768 5765 5763 5761 5759 5757 5756 5755 5753 5752 5751 5750 5749 5748 5748 5747 5747 5746 5746 5745 5745 5744 5744 5743 5743 5743 5742 5742 5741 5741 5740 5740 5741 5741 5742 5742 5743
5763 5760 5758 5756 5754 5752 5750 5749 5748 5746 5745 5744 5743 5742 5741 5740 5739 5739 5738 5738 5738 5737 5736 5735 5735 5734 5734 5734 5733 5732 5732 5731 5731 5731 5731 5732 5732 5733
5756 5754 5751 5749 5748 5746 5744 5742 5741 5739 5738 5737 5736 5734 5733 5732 5731 5731 5731 5730 5729 5729 5728 5727 5727 5726 5726 5725 5725 5724 5723 5722 5722 5722 5722 5723 5723 5724
5749 5747 5745 5743 5741 5740 5738 5735 5734 5732 5730 5729 5728 5727 5726 5725 5724 5723 5723 5722 5721 5720 5719 5719 5718 5717 5717 5716 5715 5715 5714 5713 5712 5712 5713 5714 5714 5715
5742 5740 5738 5736 5734 5732 5730 5728 5726 5725 5723 5722 5720 5719 5718 5717 5716 5716 5715 5714 5713 5712 5711 5710 5709 5708 5707 5706 5706 5705 5704 5704 5704 5704 5704 5705 5706 5706
5735 5733 5730 5728 5727 5724 5722 5720 5719 5717 5715 5714 5712 5712 5711 5710 5708 5707 5706 5705 5704 5703 5702 5702 5700 5699 5698 5697 5697 5696 5695 5695 5695 5695 5696 5696 5697 5697
5727 5725 5723 5720 5718 5716 5714 5713 5711 5709 5707 5706 5705 5704 5702 5701 5700 5698 5697 5696 5696 5695 5694 5693 5692 5691 5690 5689 5688 5687 5687 5686 5686 5687 5687 5687 5688 5689
5719 5717 5714 5712 5710 5708 5706 5705 5703 5701 5699 5697 5696 5695 5694 5693 5692 5690 5689 5688 5687 5686 5685 5684 5683 5682 5681 5681 5680 5679 5678 5678 5678 5678 5678 5678 5679 5680
5711 5709 5706 5704 5702 5700 5698 5696 5694 5692 5690 5689 5688 5686 5685 5684 5683 5682 5680 5679 5678 5677 5676 5675 5674 5673 5672 5672 5672 5671 5670 5670 5670 5670 5670 5670 5671 5672
5703 5701 5698 5696 5694 5691 5689 5687 5685 5683 5681 5680 5679 5677 5676 5675 5673 5672 5671 5670 5669 5668 5667 5666 5665 5664 5663 5663 5663 5663 5662 5661 5661 5662 5662 5662 5663 5664
5695 5693 5690 5687 5685 5683 5680 5678 5676 5674 5673 5671 5669 5668 5667 5665 5664 5662 5661 5660 5659 5658 5657 5657 5656 5655 5655 5654 5654 5654 5654 5654 5654 5654 5654 5655 5655 5656
5687 5684 5681 5679 5676 5674 5672 5670 5668 5666 5665 5663 5661 5659 5658 5656 5654 5653 5652 5650 5649 5648 5648 5647 5647 5646 5646 5646 5645 5645 5645 5646 5646 5647 5647 5647 5648 5649